{"data":{"norad_id":63375,"intl_designator":"2025-063N","name":"STARLINK-33621","alt_names":[],"object_type":"PAYLOAD","status":"ACTIVE","operator":null,"country":"US","launch_date":"2025-03-26","launch_site_code":"AFWTR","launch_vehicle":null,"mission":null,"orbit_class":"UNKNOWN","rcs_meters":null,"size_class":null,"mass_kg":null,"dimensions":null,"purposes":["comms"],"wikipedia_slug":null,"has_3d_model":false,"image_url":null,"decayed_at":null,"tle_current":{"epoch":"2026-09-20T10:42:39.306528Z","epoch_age_seconds":163499,"freshness":"FRESH","line1":"1 63375U 25063N   26263.44628827  .00016293  00000+0  49215-3 0  9994","line2":"2 63375  53.1561 221.7311 0001266  94.0377 266.0771 15.34409037 84613","mean_motion":15.34409037,"eccentricity":0.0001266,"inclination_deg":53.1561,"raan_deg":221.7311,"arg_perigee_deg":94.0377,"mean_anomaly_deg":266.0771,"bstar":0.00049215,"rev_number":8461,"period_min":93.847205358971,"perigee_km":461.8103334965,"apogee_km":463.54242744444,"semimajor_km":6840.8133804705,"source":"CELESTRAK","updated_at":"2026-09-21T09:00:34.974542Z"}}}